Погода в Верякушах

Россия / Нижегородская область     55°10′03″N   43°36′25″E
темп.,
°C
ветер,
м/с
пор.,
м/с
влажн.,
%
обл.,
%
осадки,
мм/ч
давл.,
гПа
погр.,
м
9 мая, вс
вс900:00+11ююв61575100 0.0 1007491
03:00+11ююв71489100 0.4 1006570
06:00+11ююв51187100 0.7 1005384
09:00+14ю61288100 1.4 1005702
12:00+13ююв61390100 3.3 1006935
15:00+13ююз51192100 5.3 1006806
18:00+9сз4995100 1.7 1010470
21:00+8зсз3597100 2.5 1012273
10 мая, пн
пн1000:00+8сз5798100 0.0 1014419
03:00+6ссз5996100 0.1 1017434
06:00+6с51096100 1.4 1018512
09:00+5с61094100 1.9 1021473
12:00+6с51096100 1.0 1023421
15:00+8ссв7992100 1.1 1024450
18:00+9ссв6991100 0.0 1025514
21:00+7ссв61197100 0.0 1026339
11 мая, вт
вт1100:00+7ссв51198100 0.0 1026295
03:00+7св51298100 0.0 1026291
06:00+8св6139397 0.0 1026342
09:00+14св710805 0.0 1026502
12:00+19всв68675 0.0 1026774
15:00+20всв6866100 0.3 1025989
18:00+19в4871100 0.8 1026198
21:00+14ююз3492100 1.3 102771
12 мая, ср
ср1200:00+12сз229542 0.1 102733
03:00+12всв37945 0.1 1026121
06:00+13в411905 0.0 1026265
09:00+18в61267100 0.0 1026703
12:00+18юв5107495 0.6 1026706
15:00+17вюв61473100 0.8 1025553
18:00+16вюв41177100 0.0 1025312
21:00+14юв358695 0.0 102592
13 мая, чт
чт1300:00+14вюв3982100 0.0 1025203
03:00+13вюв498393 0.0 1025167
06:00+14вюв5127998 0.0 1024290
09:00+18вюв7126179 0.0 1023493
12:00+22юв8105228 0.0 10221035
15:00+20юв71265100 0.0 10221001
18:00+16юв41183100 0.1 1022341
21:00+14юв410875 0.1 1022182